CW9114 Weather Reports


Display with metric or nautical units.
time (UTC)temp
F
wind
direction
speed
MPH
gust
MPH
rain 1hr
in
rain 24hr
in
rain mn
in
humidity
%
barometer
mb
20200406150155 42 83 0.0 2.0 0.00 0.03 0.03 85 1019.8
20200406144622 41 18 0.0 3.0 0.00 0.03 0.03 88 1019.8
20200406143127 41 75 0.0 3.0 0.00 0.03 0.03 92 1019.9
20200406141602 40 304 0.0 0.0 0.01 0.03 0.03 93 1019.8
20200406140130 40 304 0.0 1.0 0.01 0.03 0.03 93 1019.6
20200406134606 39 304 0.0 4.0 0.01 0.03 0.03 93 1019.7
20200406133036 39 263 2.0 4.0 0.01 0.02 0.02 92 1019.7
20200406131616 39 244 3.0 7.0 0.01 0.02 0.02 91 1019.9
20200406130050 38 240 2.0 5.0 0.01 0.02 0.02 91 1019.9
20200406124603 38 228 1.0 5.0 0.02 0.02 0.02 91 1020.1
20200406123048 38 228 1.0 4.0 0.01 0.01 0.01 91 1020.3
20200406121539 38 242 1.0 3.0 0.01 0.01 0.01 90 1020.4
20200406120049 37 268 0.0 4.0 0.01 0.01 0.01 89 1020.5
20200406114521 36 204 2.0 7.0 0.00 0.00 0.00 86 1020.5
20200406113030 35 284 2.0 5.0 0.00 0.00 0.00 86 1020.1
20200406111533 35 327 0.0 4.0 0.00 0.00 0.00 87 1019.8
20200406110104 33 238 0.0 3.0 0.00 0.00 0.00 90 1019.5
20200406104506 32 218 0.0 0.0 0.00 0.00 0.00 93 1019.4
20200406103005 31 218 0.0 0.0 0.00 0.00 0.00 94 1019.5
20200406101512 31 218 0.0 0.0 0.00 0.00 0.00 94 1019.5
20200406100003 31 218 0.0 0.0 0.00 0.00 0.00 94 1019.4
20200406094724 31 218 0.0 0.0 0.00 0.00 0.00 94 1019.4
20200406094501 31 218 0.0 0.0 0.00 0.00 0.00 94 1019.4
20200406093123 30 218 0.0 0.0 0.00 0.00 0.00 94 1019.4
20200406090108 30 218 0.0 0.0 0.00 0.00 0.00 95 1019.5
20200406084623 29 218 0.0 0.0 0.00 0.00 0.00 95 1019.6
20200406083156 29 218 0.0 0.0 0.00 0.00 0.00 94 1019.6
20200406081649 29 218 0.0 0.0 0.00 0.00 0.00 94 1019.6
20200406080346 29 218 0.0 0.0 0.00 0.00 0.00 95 1019.5
20200406074642 29 218 0.0 0.0 0.00 0.00 0.00 95 1019.4
20200406073150 28 218 0.0 0.0 0.00 0.00 0.00 94 1019.3
20200406071729 28 218 0.0 0.0 0.00 0.00 0.00 94 1019.2
20200406070156 28 218 0.0 2.0 0.00 0.00 0.00 94 1019.4
20200406064640 27 126 0.0 0.0 0.00 0.00 0.00 93 1019.4
20200406063130 27 126 0.0 0.0 0.00 0.00 0.00 93 1019.4
20200406061656 27 125 0.0 0.0 0.00 0.00 0.00 93 1019.3
20200406060349 28 125 0.0 0.0 0.00 0.00 0.00 93 1019.4
20200406054550 28 125 0.0 0.0 0.00 0.00 0.00 93 1019.4
20200406053043 28 125 0.0 0.0 0.00 0.00 0.00 92 1019.4
20200406051609 28 125 0.0 0.0 0.00 0.00 0.00 93 1019.5
20200406050048 28 125 0.0 0.0 0.00 0.00 0.00 92 1019.6
20200406044553 28 125 0.0 0.0 0.00 0.00 0.00 92 1019.6
20200406043051 28 125 0.0 0.0 0.00 0.00 0.00 92 1019.5
20200406041548 28 125 0.0 0.0 0.00 0.00 0.00 92 1019.5
20200406034618 28 125 0.0 0.0 0.00 0.00 0.00 92 1019.9
20200406033046 28 125 0.0 0.0 0.00 0.00 0.00 90 1020.0
20200406031526 29 125 0.0 0.0 0.00 0.00 0.00 90 1020.3
20200406030045 29 125 0.0 0.0 0.00 0.00 0.00 90 1020.5
20200406024518 29 125 0.0 0.0 0.00 0.00 0.00 89 1020.6
20200406023045 30 125 0.0 0.0 0.00 0.00 0.00 88 1020.7
20200406021600 30 125 0.0 0.0 0.00 0.00 0.00 88 1020.7
20200406020014 30 125 0.0 0.0 0.00 0.00 0.00 89 1020.8
20200406014532 31 125 0.0 0.0 0.00 0.00 0.00 88 1020.9
20200406013017 31 126 0.0 0.0 0.00 0.00 0.00 87 1020.9
20200406011613 32 126 0.0 0.0 0.00 0.00 0.00 86 1020.9
20200406010009 33 126 0.0 0.0 0.00 0.00 0.00 85 1020.9
20200406004514 34 126 0.0 0.0 0.00 0.00 0.00 84 1020.9
20200406003007 35 128 0.0 1.0 0.00 0.00 0.00 82 1021.0
20200406001513 35 128 0.0 1.0 0.00 0.00 0.00 81 1021.1
20200406000006 36 126 0.0 2.0 0.00 0.00 0.00 80 1021.3
20200405234538 37 128 0.0 3.0 0.00 0.00 0.00 78 1021.4
20200405233013 37 88 0.0 4.0 0.00 0.00 0.00 80 1021.6
20200405231623 37 105 0.0 2.0 0.00 0.00 0.00 79 1021.5
20200405230137 37 105 1.0 3.0 0.00 0.00 0.00 78 1021.7
20200405224622 37 69 1.0 3.0 0.00 0.00 0.00 78 1021.8
20200405223202 38 138 1.0 7.0 0.00 0.00 0.00 76 1022.0
20200405221706 38 119 1.0 6.0 0.00 0.00 0.00 77 1021.9